Погода в Абае

Казахстан     41°20′54″N   68°56′42″E
темп.,
°C
ветер,
м/с
пор.,
м/с
влажн.,
%
обл.,
%
осадки,
мм/ч
давл.,
гПа
погр.,
м
23 мая, пн
пн2300:00+14всв235593 0.0 101869
03:00+13юв1162100 0.0 101735
06:00+12в226544 0.0 101735
09:00+16юв115012 0.0 1016421
12:00+20зюз22354 0.0 10141363
15:00+23зюз22280 0.0 10121837
18:00+23з212771 0.0 10101600
21:00+20сз11340 0.0 100929
24 мая, вт
вт2400:00+18ссв22370 0.0 100924
03:00+17всв22500 0.0 100725
06:00+16св22540 0.0 100723
09:00+21всв23430 0.0 1007313
12:00+26с22310 0.0 10061193
15:00+30с22230 0.0 10041656
18:00+31сз22200 0.0 10031551
21:00+24с34340 0.0 100449
25 мая, ср
ср2500:00+22ссв34550 0.0 100553
03:00+21всв33570 0.0 100525
06:00+20в334548 0.0 100630
09:00+26в223259 0.0 1008191
12:00+32вюв11222 0.0 1007981
15:00+35з11170 0.0 10071835
18:00+35зсз211655 0.0 10072016
21:00+29с22251 0.0 100826
26 мая, чт
чт2600:00+26св34335 0.0 100842
03:00+24всв34330 0.0 100856
06:00+23всв33330 0.0 100930
09:00+27ссз34351 0.0 1011359
12:00+31ссз442892 0.0 10111146
15:00+33ссз662453 0.0 10101729
18:00+32ссз77245 0.0 10091871
21:00+26ссз51235100 0.0 1011367
27 мая, пт
пт2700:00+24с613328 0.0 1011461
03:00+21ссз4103283 0.0 1011290
06:00+18з354496 0.2 1012107
09:00+20ююз3445100 0.4 1013365
12:00+25зюз333445 0.4 1012933
15:00+29ссз22295 0.0 10101741
18:00+30з5428100 0.0 10102393
21:00+25зсз3637100 0.0 1012144